| time (UTC) | temp C | wind direction | speed KPH | gust KPH | rain 1hr cm | rain 24hr cm | rain mn cm | humidity % | barometer mb |
| 20260509185025 | 11 | 0.0 | 0.0 | 0.00 | 0.00 | 0.00 | 65 | 1020.5 | |
| 20260509184522 | 11 | 0.0 | 0.0 | 0.00 | 0.00 | 0.00 | 65 | 1020.5 | |
| 20260509184022 | 11 | 0.0 | 0.0 | 0.00 | 0.00 | 0.00 | 65 | 1020.4 | |
| 20260509183519 | 11 | 0.0 | 0.0 | 0.00 | 0.00 | 0.00 | 64 | 1020.4 | |
| 20260509183017 | 11 | 0.0 | 0.0 | 0.00 | 0.00 | 0.00 | 64 | 1020.4 | |
| 20260509182535 | 11 | 0.0 | 0.0 | 0.00 | 0.00 | 0.00 | 64 | 1020.3 | |
| 20260509182033 | 11 | 0.0 | 0.0 | 0.00 | 0.00 | 0.00 | 64 | 1020.3 | |
| 20260509181531 | 11 | 0.0 | 0.0 | 0.00 | 0.00 | 0.00 | 63 | 1020.2 | |
| 20260509181030 | 12 | 0.0 | 0.0 | 0.00 | 0.00 | 0.00 | 63 | 1020.1 | |
| 20260509180528 | 12 | 0.0 | 0.0 | 0.00 | 0.00 | 0.00 | 63 | 1020.1 | |
| 20260509180026 | 12 | 78 | 0.0 | 4.8 | 0.00 | 0.00 | 0.00 | 62 | 1020.1 |
| 20260509175524 | 12 | 0.0 | 0.0 | 0.00 | 0.00 | 0.00 | 62 | 1020.1 | |
| 20260509175022 | 12 | 0.0 | 0.0 | 0.00 | 0.00 | 0.00 | 62 | 1020.1 | |
| 20260509174520 | 12 | 118 | 0.0 | 1.6 | 0.00 | 0.00 | 0.00 | 62 | 1019.9 |
| 20260509174049 | 12 | 115 | 1.6 | 3.2 | 0.00 | 0.00 | 0.00 | 62 | 1019.9 |
| 20260509174018 | 12 | 115 | 1.6 | 3.2 | 0.00 | 0.00 | 0.00 | 62 | 1019.9 |
| 20260509173517 | 12 | 0.0 | 0.0 | 0.00 | 0.00 | 0.00 | 61 | 1020.0 | |
| 20260509173034 | 12 | 0.0 | 0.0 | 0.00 | 0.00 | 0.00 | 61 | 1020.1 | |
| 20260509172532 | 12 | 0.0 | 0.0 | 0.00 | 0.00 | 0.00 | 61 | 1020.1 | |
| 20260509172031 | 12 | 52 | 0.0 | 1.6 | 0.00 | 0.00 | 0.00 | 60 | 1019.9 |
| 20260509171528 | 12 | 103 | 0.0 | 3.2 | 0.00 | 0.00 | 0.00 | 59 | 1020.0 |
| 20260509171026 | 12 | 70 | 1.6 | 1.6 | 0.00 | 0.00 | 0.00 | 60 | 1020.0 |
| 20260509170525 | 12 | 6 | 1.6 | 6.4 | 0.00 | 0.00 | 0.00 | 59 | 1019.9 |
| 20260509170023 | 12 | 356 | 0.0 | 6.4 | 0.00 | 0.00 | 0.00 | 59 | 1019.9 |
| 20260509165521 | 12 | 353 | 1.6 | 4.8 | 0.00 | 0.00 | 0.00 | 58 | 1019.8 |
| 20260509165048 | 12 | 352 | 0.0 | 4.8 | 0.00 | 0.00 | 0.00 | 59 | 1019.9 |
| 20260509165019 | 12 | 352 | 0.0 | 4.8 | 0.00 | 0.00 | 0.00 | 59 | 1019.9 |
| 20260509164518 | 12 | 1 | 1.6 | 9.7 | 0.00 | 0.00 | 0.00 | 58 | 1019.9 |
| 20260509164016 | 12 | 344 | 3.2 | 9.7 | 0.00 | 0.00 | 0.00 | 57 | 1019.9 |
| 20260509163534 | 12 | 350 | 4.8 | 12.9 | 0.00 | 0.00 | 0.00 | 57 | 1019.9 |
| 20260509163033 | 13 | 2 | 3.2 | 9.7 | 0.00 | 0.00 | 0.00 | 57 | 1019.8 |
| 20260509162531 | 13 | 351 | 4.8 | 11.3 | 0.00 | 0.00 | 0.00 | 57 | 1019.8 |
| 20260509162030 | 13 | 46 | 1.6 | 6.4 | 0.00 | 0.00 | 0.00 | 57 | 1019.7 |
| 20260509161527 | 13 | 333 | 1.6 | 6.4 | 0.00 | 0.00 | 0.00 | 57 | 1019.7 |
| 20260509161049 | 13 | 333 | 4.8 | 3.2 | 0.00 | 0.00 | 0.00 | 59 | 1019.7 |
| 20260509161025 | 13 | 333 | 0.0 | 3.2 | 0.00 | 0.00 | 0.00 | 59 | 1019.7 |
| 20260509160523 | 13 | 356 | 1.6 | 6.4 | 0.00 | 0.00 | 0.00 | 58 | 1019.8 |
| 20260509160021 | 13 | 347 | 3.2 | 9.7 | 0.00 | 0.00 | 0.00 | 57 | 1019.9 |
| 20260509155519 | 13 | 52 | 1.6 | 4.8 | 0.00 | 0.00 | 0.00 | 57 | 1020.0 |
| 20260509155049 | 13 | 17 | 4.8 | 16.1 | 0.00 | 0.00 | 0.00 | 57 | 1019.9 |
| 20260509155018 | 13 | 17 | 4.8 | 16.1 | 0.00 | 0.00 | 0.00 | 57 | 1019.9 |
| 20260509154515 | 13 | 352 | 3.2 | 11.3 | 0.00 | 0.00 | 0.00 | 58 | 1019.9 |
| 20260509154034 | 13 | 328 | 3.2 | 12.9 | 0.00 | 0.00 | 0.00 | 57 | 1019.9 |
| 20260509153533 | 13 | 24 | 1.6 | 9.7 | 0.00 | 0.00 | 0.00 | 58 | 1020.0 |
| 20260509153031 | 13 | 37 | 1.6 | 9.7 | 0.00 | 0.00 | 0.00 | 57 | 1019.9 |
| 20260509152528 | 13 | 344 | 4.8 | 14.5 | 0.00 | 0.00 | 0.00 | 57 | 1019.9 |
| 20260509152026 | 13 | 283 | 1.6 | 4.8 | 0.00 | 0.00 | 0.00 | 58 | 1019.9 |
| 20260509151525 | 13 | 335 | 4.8 | 11.3 | 0.00 | 0.00 | 0.00 | 57 | 1020.0 |
| 20260509151023 | 13 | 332 | 3.2 | 12.9 | 0.00 | 0.00 | 0.00 | 58 | 1019.9 |
| 20260509150521 | 12 | 4 | 1.6 | 14.5 | 0.00 | 0.00 | 0.00 | 59 | 1019.9 |
| 20260509150019 | 12 | 313 | 3.2 | 9.7 | 0.00 | 0.00 | 0.00 | 59 | 1020.0 |
| 20260509145517 | 12 | 354 | 4.8 | 9.7 | 0.00 | 0.00 | 0.00 | 59 | 1020.0 |
| 20260509145048 | 12 | 335 | 3.2 | 11.3 | 0.00 | 0.00 | 0.00 | 59 | 1019.9 |
| 20260509145015 | 12 | 335 | 3.2 | 11.3 | 0.00 | 0.00 | 0.00 | 59 | 1019.9 |
| 20260509144534 | 12 | 331 | 4.8 | 12.9 | 0.00 | 0.00 | 0.00 | 58 | 1019.9 |
| 20260509144032 | 12 | 336 | 4.8 | 14.5 | 0.00 | 0.00 | 0.00 | 59 | 1019.9 |
| 20260509143530 | 12 | 341 | 4.8 | 14.5 | 0.00 | 0.00 | 0.00 | 59 | 1019.9 |
| 20260509143028 | 12 | 346 | 3.2 | 9.7 | 0.00 | 0.00 | 0.00 | 60 | 1019.9 |
| 20260509142526 | 12 | 293 | 3.2 | 14.5 | 0.00 | 0.00 | 0.00 | 60 | 1019.9 |
| 20260509142025 | 12 | 352 | 3.2 | 9.7 | 0.00 | 0.00 | 0.00 | 61 | 1020.0 |
| 20260509141523 | 12 | 10 | 1.6 | 11.3 | 0.00 | 0.00 | 0.00 | 62 | 1020.0 |
| 20260509141021 | 12 | 338 | 1.6 | 9.7 | 0.00 | 0.00 | 0.00 | 61 | 1019.9 |
| 20260509140519 | 12 | 337 | 4.8 | 16.1 | 0.00 | 0.00 | 0.00 | 61 | 1020.1 |
| 20260509140048 | 12 | 301 | 3.2 | 11.3 | 0.00 | 0.00 | 0.00 | 61 | 1020.0 |
| 20260509140017 | 12 | 301 | 3.2 | 11.3 | 0.00 | 0.00 | 0.00 | 61 | 1020.0 |
| 20260509135516 | 12 | 307 | 6.4 | 17.7 | 0.00 | 0.00 | 0.00 | 60 | 1020.0 |
| 20260509135034 | 12 | 321 | 4.8 | 16.1 | 0.00 | 0.00 | 0.00 | 62 | 1020.0 |
| 20260509134532 | 12 | 360 | 3.2 | 11.3 | 0.00 | 0.00 | 0.00 | 62 | 1020.0 |
| 20260509134030 | 12 | 22 | 1.6 | 6.4 | 0.00 | 0.00 | 0.00 | 62 | 1020.1 |
| 20260509133529 | 12 | 340 | 6.4 | 14.5 | 0.00 | 0.00 | 0.00 | 62 | 1020.1 |
| 20260509133027 | 12 | 339 | 4.8 | 17.7 | 0.00 | 0.00 | 0.00 | 62 | 1020.0 |
| 20260509132525 | 12 | 331 | 4.8 | 25.7 | 0.00 | 0.00 | 0.00 | 64 | 1020.1 |
| 20260509132023 | 12 | 312 | 6.4 | 12.9 | 0.00 | 0.00 | 0.00 | 65 | 1020.2 |
| 20260509131521 | 11 | 298 | 3.2 | 9.7 | 0.00 | 0.00 | 0.00 | 66 | 1020.2 |
| 20260509131019 | 11 | 280 | 4.8 | 14.5 | 0.00 | 0.00 | 0.00 | 66 | 1020.2 |
| 20260509130517 | 11 | 296 | 6.4 | 14.5 | 0.00 | 0.00 | 0.00 | 66 | 1020.4 |
| 20260509130016 | 11 | 298 | 4.8 | 11.3 | 0.00 | 0.00 | 0.00 | 66 | 1020.3 |
| 20260509125534 | 11 | 280 | 4.8 | 11.3 | 0.00 | 0.00 | 0.00 | 66 | 1020.4 |
| 20260509125032 | 11 | 327 | 3.2 | 6.4 | 0.00 | 0.00 | 0.00 | 66 | 1020.6 |
| 20260509124530 | 11 | 306 | 4.8 | 17.7 | 0.00 | 0.00 | 0.00 | 66 | 1020.5 |
| 20260509124048 | 11 | 349 | 6.4 | 16.1 | 0.00 | 0.00 | 0.00 | 67 | 102.0 |
| 20260509124029 | 11 | 349 | 6.4 | 16.1 | 0.00 | 0.00 | 0.00 | 67 | 1020.5 |
| 20260509123527 | 10 | 355 | 4.8 | 14.5 | 0.00 | 0.00 | 0.00 | 68 | 1020.5 |
| 20260509123025 | 10 | 337 | 6.4 | 14.5 | 0.00 | 0.00 | 0.00 | 70 | 1020.5 |
| 20260509122523 | 10 | 327 | 3.2 | 9.7 | 0.00 | 0.00 | 0.00 | 72 | 1020.6 |
| 20260509122021 | 10 | 352 | 4.8 | 11.3 | 0.00 | 0.00 | 0.00 | 72 | 1020.7 |
| 20260509121520 | 10 | 305 | 4.8 | 12.9 | 0.00 | 0.00 | 0.00 | 72 | 1020.7 |
| 20260509121018 | 10 | 337 | 3.2 | 9.7 | 0.00 | 0.00 | 0.00 | 72 | 1020.8 |
| 20260509120516 | 10 | 308 | 4.8 | 12.9 | 0.00 | 0.00 | 0.00 | 73 | 1020.8 |
| 20260509120034 | 10 | 316 | 4.8 | 16.1 | 0.00 | 0.00 | 0.00 | 73 | 1020.8 |
| 20260509115533 | 10 | 325 | 3.2 | 11.3 | 0.00 | 0.00 | 0.00 | 73 | 1020.9 |
| 20260509115031 | 10 | 324 | 1.6 | 6.4 | 0.00 | 0.00 | 0.00 | 73 | 1020.8 |
| 20260509114529 | 10 | 357 | 4.8 | 17.7 | 0.00 | 0.00 | 0.00 | 73 | 1020.8 |
| 20260509114028 | 10 | 341 | 4.8 | 11.3 | 0.00 | 0.00 | 0.00 | 73 | 1020.8 |
| 20260509113526 | 10 | 342 | 4.8 | 12.9 | 0.00 | 0.00 | 0.00 | 73 | 1020.8 |
| 20260509113024 | 10 | 340 | 4.8 | 6.4 | 0.00 | 0.00 | 0.00 | 73 | 1020.8 |
| 20260509112521 | 10 | 0 | 3.2 | 12.9 | 0.00 | 0.00 | 0.00 | 73 | 1020.8 |
| 20260509112020 | 10 | 332 | 3.2 | 9.7 | 0.00 | 0.00 | 0.00 | 73 | 1020.8 |
| 20260509111518 | 10 | 340 | 6.4 | 14.5 | 0.00 | 0.00 | 0.00 | 73 | 1020.8 |
| 20260509111016 | 10 | 349 | 6.4 | 12.9 | 0.00 | 0.00 | 0.00 | 73 | 1020.8 |
| 20260509110534 | 10 | 359 | 8.0 | 16.1 | 0.00 | 0.00 | 0.00 | 73 | 1020.7 |
| 20260509110032 | 10 | 4 | 8.0 | 17.7 | 0.00 | 0.00 | 0.00 | 74 | 1020.8 |
| 20260509105531 | 10 | 344 | 8.0 | 20.9 | 0.00 | 0.00 | 0.00 | 75 | 1020.7 |
| 20260509105029 | 10 | 316 | 3.2 | 9.7 | 0.00 | 0.00 | 0.00 | 76 | 1020.6 |
| 20260509104527 | 10 | 299 | 3.2 | 11.3 | 0.00 | 0.00 | 0.00 | 76 | 1020.7 |
| 20260509104026 | 10 | 297 | 4.8 | 9.7 | 0.00 | 0.00 | 0.00 | 78 | 1020.6 |
| 20260509103523 | 10 | 294 | 3.2 | 9.7 | 0.00 | 0.00 | 0.00 | 77 | 1020.7 |
| 20260509103021 | 10 | 297 | 3.2 | 6.4 | 0.00 | 0.00 | 0.00 | 77 | 1020.6 |
| 20260509102520 | 10 | 300 | 4.8 | 14.5 | 0.00 | 0.00 | 0.00 | 76 | 1020.6 |
| 20260509102019 | 10 | 315 | 6.4 | 16.1 | 0.00 | 0.00 | 0.00 | 77 | 1020.6 |
| 20260509101516 | 10 | 314 | 6.4 | 12.9 | 0.00 | 0.00 | 0.00 | 77 | 1020.6 |
| 20260509101034 | 10 | 291 | 3.2 | 9.7 | 0.00 | 0.00 | 0.00 | 76 | 1020.6 |
| 20260509100532 | 10 | 320 | 4.8 | 12.9 | 0.00 | 0.00 | 0.00 | 77 | 1020.6 |
| 20260509100030 | 10 | 297 | 6.4 | 17.7 | 0.00 | 0.00 | 0.00 | 77 | 1020.6 |
| 20260509095528 | 10 | 308 | 6.4 | 16.1 | 0.00 | 0.00 | 0.00 | 76 | 1020.4 |
| 20260509095027 | 10 | 309 | 6.4 | 14.5 | 0.00 | 0.00 | 0.00 | 76 | 1020.4 |
| 20260509094525 | 10 | 295 | 8.0 | 16.1 | 0.00 | 0.00 | 0.00 | 74 | 1020.4 |
| 20260509094023 | 10 | 298 | 8.0 | 17.7 | 0.00 | 0.00 | 0.00 | 75 | 1020.4 |
| 20260509093521 | 10 | 308 | 8.0 | 14.5 | 0.00 | 0.00 | 0.00 | 75 | 1020.4 |
| 20260509093020 | 10 | 294 | 8.0 | 24.1 | 0.00 | 0.00 | 0.00 | 75 | 1020.3 |
| 20260509092518 | 10 | 325 | 6.4 | 16.1 | 0.00 | 0.00 | 0.00 | 75 | 1020.3 |
| 20260509092016 | 10 | 328 | 6.4 | 16.1 | 0.00 | 0.00 | 0.00 | 74 | 1020.2 |
| 20260509091535 | 10 | 312 | 6.4 | 12.9 | 0.00 | 0.00 | 0.00 | 74 | 1020.3 |
| 20260509091032 | 10 | 355 | 9.7 | 16.1 | 0.00 | 0.00 | 0.00 | 74 | 1020.3 |
| 20260509090531 | 10 | 338 | 4.8 | 12.9 | 0.00 | 0.00 | 0.00 | 74 | 1020.3 |
| 20260509090029 | 10 | 331 | 4.8 | 11.3 | 0.00 | 0.00 | 0.00 | 74 | 1020.2 |
| 20260509085527 | 10 | 307 | 6.4 | 11.3 | 0.00 | 0.00 | 0.00 | 73 | 1020.2 |
| 20260509085026 | 10 | 342 | 6.4 | 16.1 | 0.00 | 0.00 | 0.00 | 73 | 1020.3 |
| 20260509084524 | 10 | 314 | 4.8 | 11.3 | 0.00 | 0.00 | 0.00 | 74 | 1020.2 |
| 20260509084022 | 10 | 339 | 4.8 | 14.5 | 0.00 | 0.00 | 0.00 | 73 | 1020.2 |
| 20260509083520 | 10 | 298 | 6.4 | 12.9 | 0.00 | 0.00 | 0.00 | 73 | 1020.1 |
| 20260509083018 | 10 | 301 | 6.4 | 14.5 | 0.00 | 0.00 | 0.00 | 73 | 1020.1 |
| 20260509082516 | 10 | 321 | 4.8 | 12.9 | 0.00 | 0.00 | 0.00 | 73 | 1020.1 |
| 20260509082034 | 11 | 294 | 6.4 | 12.9 | 0.00 | 0.00 | 0.00 | 73 | 1020.1 |
| 20260509081532 | 11 | 301 | 6.4 | 12.9 | 0.00 | 0.00 | 0.00 | 73 | 1020.1 |
| 20260509081031 | 11 | 276 | 8.0 | 14.5 | 0.00 | 0.00 | 0.00 | 74 | 1020.0 |
| 20260509080529 | 10 | 292 | 6.4 | 14.5 | 0.00 | 0.00 | 0.00 | 74 | 1019.9 |
| 20260509080027 | 10 | 306 | 6.4 | 14.5 | 0.00 | 0.00 | 0.00 | 75 | 1020.0 |
| 20260509075525 | 10 | 312 | 6.4 | 12.9 | 0.00 | 0.00 | 0.00 | 75 | 1020.0 |
| 20260509075023 | 10 | 310 | 11.3 | 20.9 | 0.00 | 0.00 | 0.00 | 75 | 1020.0 |
| 20260509074521 | 10 | 309 | 8.0 | 16.1 | 0.00 | 0.00 | 0.00 | 76 | 1019.9 |
| 20260509074019 | 10 | 332 | 6.4 | 12.9 | 0.00 | 0.00 | 0.00 | 76 | 1020.0 |
| 20260509073519 | 10 | 295 | 4.8 | 11.3 | 0.00 | 0.00 | 0.00 | 77 | 1019.9 |
| 20260509073048 | 10 | 300 | 4.8 | 14.5 | 0.00 | 0.00 | 0.00 | 77 | 1020.0 |
| 20260509073016 | 10 | 300 | 4.8 | 14.5 | 0.00 | 0.00 | 0.00 | 77 | 1020.0 |
| 20260509072534 | 10 | 285 | 4.8 | 12.9 | 0.00 | 0.00 | 0.00 | 77 | 1019.9 |
| 20260509072033 | 10 | 296 | 6.4 | 11.3 | 0.00 | 0.00 | 0.00 | 77 | 1020.0 |
| 20260509071530 | 10 | 312 | 4.8 | 12.9 | 0.00 | 0.00 | 0.00 | 78 | 1019.9 |
| 20260509071029 | 10 | 297 | 4.8 | 11.3 | 0.00 | 0.00 | 0.00 | 78 | 1019.9 |
| 20260509070528 | 10 | 343 | 3.2 | 11.3 | 0.00 | 0.00 | 0.00 | 78 | 1019.9 |
| 20260509070049 | 10 | 333 | 4.8 | 9.7 | 0.00 | 0.00 | 0.00 | 79 | 1019.9 |
| 20260509070025 | 10 | 333 | 4.8 | 9.7 | 0.00 | 0.00 | 0.00 | 79 | 1019.9 |
| 20260509065523 | 10 | 351 | 4.8 | 11.3 | 0.00 | 0.00 | 0.00 | 80 | 1019.8 |
| 20260509065021 | 10 | 304 | 3.2 | 6.4 | 0.00 | 0.00 | 0.00 | 80 | 1019.9 |
| 20260509064519 | 10 | 291 | 1.6 | 6.4 | 0.00 | 0.00 | 0.00 | 80 | 1019.8 |
| 20260509064017 | 10 | 292 | 3.2 | 6.4 | 0.00 | 0.00 | 0.00 | 81 | 1019.9 |
| 20260509063516 | 10 | 288 | 1.6 | 3.2 | 0.00 | 0.00 | 0.00 | 81 | 1019.8 |
| 20260509063034 | 9 | 303 | 3.2 | 9.7 | 0.00 | 0.00 | 0.00 | 81 | 1019.8 |
| 20260509062532 | 9 | 295 | 4.8 | 9.7 | 0.00 | 0.00 | 0.00 | 81 | 1019.7 |
| 20260509062031 | 9 | 307 | 3.2 | 6.4 | 0.00 | 0.00 | 0.00 | 81 | 1019.9 |
| 20260509061529 | 9 | 310 | 3.2 | 9.7 | 0.00 | 0.00 | 0.00 | 81 | 1019.7 |
| 20260509061026 | 9 | 302 | 4.8 | 11.3 | 0.00 | 0.00 | 0.00 | 81 | 1019.8 |
| 20260509060525 | 9 | 318 | 3.2 | 9.7 | 0.00 | 0.00 | 0.00 | 81 | 1019.7 |
| 20260509060023 | 9 | 300 | 3.2 | 9.7 | 0.00 | 0.00 | 0.00 | 81 | 1019.8 |
| 20260509055521 | 9 | 335 | 3.2 | 9.7 | 0.00 | 0.00 | 0.00 | 81 | 1019.7 |
| 20260509055019 | 9 | 298 | 3.2 | 9.7 | 0.00 | 0.00 | 0.00 | 82 | 1019.8 |
| 20260509054517 | 9 | 304 | 4.8 | 9.7 | 0.00 | 0.00 | 0.00 | 82 | 1019.7 |
| 20260509054016 | 9 | 330 | 3.2 | 9.7 | 0.00 | 0.00 | 0.00 | 82 | 1019.7 |
| 20260509053534 | 9 | 338 | 4.8 | 11.3 | 0.00 | 0.00 | 0.00 | 82 | 1019.6 |
| 20260509053031 | 9 | 294 | 3.2 | 6.4 | 0.00 | 0.00 | 0.00 | 82 | 1019.6 |
| 20260509052530 | 9 | 305 | 4.8 | 12.9 | 0.00 | 0.00 | 0.00 | 82 | 1019.6 |
| 20260509052028 | 9 | 299 | 3.2 | 9.7 | 0.00 | 0.00 | 0.00 | 82 | 1019.6 |
| 20260509051525 | 9 | 304 | 4.8 | 11.3 | 0.00 | 0.00 | 0.00 | 83 | 1019.6 |
| 20260509051023 | 9 | 299 | 3.2 | 11.3 | 0.00 | 0.00 | 0.00 | 83 | 1019.6 |
| 20260509050521 | 9 | 342 | 3.2 | 6.4 | 0.00 | 0.00 | 0.00 | 83 | 1019.5 |
| 20260509050050 | 9 | 314 | 3.2 | 0.0 | 0.00 | 0.00 | 0.00 | 83 | 1019.6 |
| 20260509050019 | 9 | 314 | 3.2 | 9.7 | 0.00 | 0.00 | 0.00 | 83 | 1019.6 |
| 20260509045517 | 9 | 316 | 1.6 | 6.4 | 0.00 | 0.00 | 0.00 | 83 | 1019.5 |
| 20260509045037 | 9 | 290 | 4.8 | 9.7 | 0.00 | 0.00 | 0.00 | 83 | 1019.6 |
| 20260509044533 | 9 | 287 | 3.2 | 9.7 | 0.00 | 0.00 | 0.00 | 83 | 1019.6 |
| 20260509044031 | 9 | 289 | 4.8 | 9.7 | 0.00 | 0.00 | 0.00 | 83 | 1019.5 |
| 20260509043529 | 9 | 298 | 4.8 | 9.7 | 0.00 | 0.00 | 0.00 | 83 | 1019.5 |
| 20260509043028 | 9 | 295 | 4.8 | 11.3 | 0.00 | 0.00 | 0.00 | 83 | 1019.5 |
| 20260509042526 | 9 | 288 | 4.8 | 11.3 | 0.00 | 0.00 | 0.00 | 83 | 1019.5 |
| 20260509042024 | 9 | 288 | 1.6 | 6.4 | 0.00 | 0.00 | 0.00 | 83 | 1019.4 |
| 20260509041523 | 9 | 294 | 3.2 | 6.4 | 0.00 | 0.00 | 0.00 | 83 | 1019.4 |
| 20260509041020 | 9 | 287 | 4.8 | 9.7 | 0.00 | 0.00 | 0.00 | 83 | 1019.5 |
| 20260509040519 | 9 | 301 | 1.6 | 4.8 | 0.00 | 0.00 | 0.00 | 82 | 1019.3 |
| 20260509040017 | 9 | 313 | 3.2 | 9.7 | 0.00 | 0.00 | 0.00 | 82 | 1019.3 |
| 20260509035535 | 9 | 284 | 3.2 | 6.4 | 0.00 | 0.00 | 0.00 | 82 | 1019.4 |
| 20260509035033 | 9 | 292 | 1.6 | 4.8 | 0.00 | 0.00 | 0.00 | 83 | 1019.3 |
| 20260509034531 | 9 | 288 | 4.8 | 9.7 | 0.00 | 0.00 | 0.00 | 83 | 1019.3 |
| 20260509034028 | 9 | 300 | 3.2 | 6.4 | 0.00 | 0.00 | 0.00 | 83 | 1019.3 |
| 20260509033527 | 9 | 291 | 3.2 | 9.7 | 0.00 | 0.00 | 0.00 | 83 | 1019.2 |
| 20260509033025 | 9 | 292 | 4.8 | 9.7 | 0.00 | 0.00 | 0.00 | 83 | 1019.3 |
| 20260509032523 | 9 | 299 | 3.2 | 9.7 | 0.00 | 0.00 | 0.00 | 82 | 1019.4 |
| 20260509032021 | 9 | 298 | 3.2 | 9.7 | 0.00 | 0.00 | 0.00 | 82 | 1019.4 |
| 20260509031519 | 9 | 294 | 4.8 | 9.7 | 0.00 | 0.00 | 0.00 | 82 | 1019.4 |
| 20260509031018 | 9 | 286 | 3.2 | 9.7 | 0.00 | 0.00 | 0.00 | 82 | 1019.4 |
| 20260509030536 | 9 | 294 | 4.8 | 11.3 | 0.00 | 0.00 | 0.00 | 82 | 1019.4 |
| 20260509030034 | 9 | 313 | 3.2 | 6.4 | 0.00 | 0.00 | 0.00 | 82 | 1019.4 |
| 20260509025532 | 9 | 297 | 1.6 | 4.8 | 0.00 | 0.00 | 0.00 | 82 | 1019.4 |
| 20260509025030 | 9 | 292 | 1.6 | 4.8 | 0.00 | 0.00 | 0.00 | 82 | 1019.5 |
| 20260509024528 | 9 | 288 | 3.2 | 6.4 | 0.00 | 0.00 | 0.00 | 82 | 1019.5 |
| 20260509024027 | 9 | 292 | 3.2 | 9.7 | 0.00 | 0.00 | 0.00 | 82 | 1019.6 |
| 20260509023524 | 9 | 285 | 3.2 | 6.4 | 0.00 | 0.00 | 0.00 | 82 | 1019.4 |
| 20260509023024 | 9 | 295 | 4.8 | 9.7 | 0.00 | 0.00 | 0.00 | 82 | 1019.5 |
| 20260509022521 | 9 | 288 | 3.2 | 6.4 | 0.00 | 0.00 | 0.00 | 81 | 1019.5 |
| 20260509022050 | 9 | 288 | 3.2 | 9.7 | 0.00 | 0.00 | 0.00 | 81 | 1019.6 |
| 20260509022019 | 9 | 288 | 3.2 | 9.7 | 0.00 | 0.00 | 0.00 | 81 | 1019.6 |
| 20260509021517 | 9 | 287 | 4.8 | 11.3 | 0.00 | 0.00 | 0.00 | 81 | 1019.6 |
| 20260509021035 | 9 | 302 | 3.2 | 6.4 | 0.00 | 0.00 | 0.00 | 81 | 1019.5 |
| 20260509020534 | 9 | 296 | 3.2 | 6.4 | 0.00 | 0.00 | 0.00 | 81 | 1019.6 |
| 20260509020032 | 9 | 297 | 3.2 | 6.4 | 0.00 | 0.00 | 0.00 | 81 | 1019.5 |
| 20260509015530 | 9 | 283 | 4.8 | 9.7 | 0.00 | 0.00 | 0.00 | 81 | 1019.5 |
| 20260509015028 | 9 | 296 | 3.2 | 11.3 | 0.00 | 0.00 | 0.00 | 81 | 1019.5 |
| 20260509014526 | 9 | 288 | 3.2 | 6.4 | 0.00 | 0.00 | 0.00 | 81 | 1019.6 |
| 20260509014025 | 9 | 289 | 4.8 | 6.4 | 0.00 | 0.00 | 0.00 | 81 | 1019.5 |
| 20260509013523 | 9 | 291 | 3.2 | 11.3 | 0.00 | 0.00 | 0.00 | 81 | 1019.6 |
| 20260509013040 | 9 | 304 | 4.8 | 12.9 | 0.00 | 0.00 | 0.00 | 81 | 1019.5 |
| 20260509012535 | 9 | 295 | 4.8 | 9.7 | 0.00 | 0.00 | 0.00 | 81 | 1019.6 |
| 20260509012032 | 9 | 302 | 4.8 | 11.3 | 0.00 | 0.00 | 0.00 | 81 | 1019.6 |
| 20260509011530 | 9 | 289 | 3.2 | 9.7 | 0.00 | 0.00 | 0.00 | 81 | 1019.6 |
| 20260509011049 | 10 | 304 | 4.8 | 6.4 | 0.00 | 0.00 | 0.00 | 80 | 1019.1 |
| 20260509011028 | 10 | 304 | 4.8 | 6.4 | 0.00 | 0.00 | 0.00 | 80 | 1019.6 |
| 20260509010527 | 10 | 295 | 4.8 | 11.3 | 0.00 | 0.00 | 0.00 | 80 | 1019.5 |
| 20260509010025 | 10 | 285 | 4.8 | 12.9 | 0.00 | 0.00 | 0.00 | 80 | 1019.6 |
| 20260509005523 | 10 | 288 | 3.2 | 6.4 | 0.00 | 0.00 | 0.00 | 80 | 1019.5 |
| 20260509005021 | 10 | 298 | 3.2 | 11.3 | 0.00 | 0.00 | 0.00 | 80 | 1019.5 |
| 20260509004520 | 10 | 291 | 4.8 | 11.3 | 0.00 | 0.00 | 0.00 | 80 | 1019.5 |
| 20260509004018 | 10 | 309 | 4.8 | 11.3 | 0.00 | 0.00 | 0.00 | 80 | 1019.5 |
| 20260509003516 | 10 | 299 | 4.8 | 9.7 | 0.00 | 0.00 | 0.00 | 79 | 1019.6 |
| 20260509003034 | 10 | 288 | 4.8 | 11.3 | 0.00 | 0.00 | 0.00 | 79 | 1019.6 |
| 20260509002532 | 10 | 294 | 3.2 | 9.7 | 0.00 | 0.00 | 0.00 | 79 | 1019.6 |
| 20260509002031 | 10 | 289 | 4.8 | 6.4 | 0.00 | 0.00 | 0.00 | 79 | 1019.7 |
| 20260509001529 | 10 | 289 | 4.8 | 6.4 | 0.00 | 0.00 | 0.00 | 79 | 1019.6 |
| 20260509001027 | 10 | 293 | 3.2 | 11.3 | 0.00 | 0.00 | 0.00 | 78 | 1019.7 |
| 20260509000526 | 10 | 279 | 4.8 | 11.3 | 0.00 | 0.00 | 0.00 | 78 | 1019.7 |
| 20260509000024 | 10 | 297 | 3.2 | 6.4 | 0.00 | 0.00 | 0.00 | 79 | 1019.7 |
| 20260508235522 | 10 | 283 | 3.2 | 11.3 | 0.00 | 0.00 | 0.00 | 79 | 1019.7 |
| 20260508235020 | 10 | 284 | 6.4 | 11.3 | 0.00 | 0.00 | 0.00 | 78 | 1019.7 |
| 20260508234518 | 10 | 307 | 4.8 | 9.7 | 0.00 | 0.00 | 0.00 | 79 | 1019.7 |
| 20260508234049 | 10 | 277 | 3.2 | 9.7 | 0.00 | 0.00 | 0.00 | 79 | 1019.7 |
| 20260508234017 | 10 | 277 | 3.2 | 9.7 | 0.00 | 0.00 | 0.00 | 79 | 1019.7 |
| 20260508233534 | 10 | 306 | 3.2 | 9.7 | 0.00 | 0.00 | 0.00 | 79 | 1019.7 |
| 20260508233033 | 10 | 280 | 3.2 | 6.4 | 0.00 | 0.00 | 0.00 | 79 | 1019.7 |
| 20260508232530 | 10 | 293 | 3.2 | 6.4 | 0.00 | 0.00 | 0.00 | 79 | 1019.7 |
| 20260508232029 | 10 | 286 | 3.2 | 6.4 | 0.00 | 0.00 | 0.00 | 78 | 1019.8 |
| 20260508231527 | 10 | 289 | 3.2 | 6.4 | 0.00 | 0.00 | 0.00 | 78 | 1019.7 |
| 20260508231025 | 10 | 296 | 3.2 | 9.7 | 0.00 | 0.00 | 0.00 | 78 | 1019.7 |
| 20260508230524 | 10 | 291 | 3.2 | 6.4 | 0.00 | 0.00 | 0.00 | 78 | 1019.7 |
| 20260508230022 | 10 | 289 | 4.8 | 9.7 | 0.00 | 0.00 | 0.00 | 78 | 1019.8 |
| 20260508225521 | 10 | 292 | 3.2 | 4.8 | 0.00 | 0.00 | 0.00 | 78 | 1019.8 |
| 20260508225018 | 10 | 291 | 3.2 | 6.4 | 0.00 | 0.00 | 0.00 | 78 | 1019.7 |
| 20260508224516 | 10 | 288 | 3.2 | 6.4 | 0.00 | 0.00 | 0.00 | 78 | 1019.7 |
| 20260508224035 | 10 | 286 | 1.6 | 6.4 | 0.00 | 0.00 | 0.00 | 78 | 1019.7 |
| 20260508223533 | 10 | 304 | 3.2 | 6.4 | 0.00 | 0.00 | 0.00 | 78 | 1019.6 |
| 20260508223031 | 10 | 305 | 3.2 | 6.4 | 0.00 | 0.00 | 0.00 | 77 | 1019.7 |
| 20260508222529 | 10 | 293 | 3.2 | 11.3 | 0.00 | 0.00 | 0.00 | 77 | 1019.6 |
| 20260508222027 | 10 | 285 | 3.2 | 11.3 | 0.00 | 0.00 | 0.00 | 77 | 1019.7 |
| 20260508221526 | 10 | 285 | 3.2 | 6.4 | 0.00 | 0.00 | 0.00 | 77 | 1019.6 |
| 20260508221024 | 10 | 277 | 3.2 | 6.4 | 0.00 | 0.00 | 0.00 | 77 | 1019.6 |
| 20260508220522 | 10 | 291 | 3.2 | 4.8 | 0.00 | 0.00 | 0.00 | 77 | 1019.6 |
| 20260508220021 | 10 | 295 | 1.6 | 6.4 | 0.00 | 0.00 | 0.00 | 77 | 1019.6 |
| 20260508215518 | 10 | 297 | 3.2 | 9.7 | 0.00 | 0.00 | 0.00 | 77 | 1019.6 |
| 20260508215048 | 10 | 295 | 1.6 | 4.8 | 0.00 | 0.00 | 0.00 | 77 | 1019.6 |
| 20260508215017 | 10 | 295 | 1.6 | 4.8 | 0.00 | 0.00 | 0.00 | 77 | 1019.6 |
| 20260508214535 | 10 | 286 | 1.6 | 6.4 | 0.00 | 0.00 | 0.00 | 76 | 1019.6 |
| 20260508214033 | 10 | 284 | 3.2 | 6.4 | 0.00 | 0.00 | 0.00 | 76 | 1019.6 |
| 20260508213531 | 10 | 284 | 3.2 | 4.8 | 0.00 | 0.00 | 0.00 | 77 | 1019.6 |
| 20260508213029 | 10 | 300 | 4.8 | 11.3 | 0.00 | 0.00 | 0.00 | 76 | 1019.6 |
| 20260508212528 | 10 | 289 | 1.6 | 6.4 | 0.00 | 0.00 | 0.00 | 76 | 1019.8 |
| 20260508212026 | 10 | 285 | 1.6 | 4.8 | 0.00 | 0.00 | 0.00 | 77 | 1019.7 |
| 20260508211524 | 10 | 299 | 3.2 | 6.4 | 0.00 | 0.00 | 0.00 | 77 | 1019.7 |
| 20260508211022 | 10 | 321 | 3.2 | 9.7 | 0.00 | 0.00 | 0.00 | 77 | 1019.7 |
| 20260508210521 | 10 | 316 | 4.8 | 11.3 | 0.00 | 0.00 | 0.00 | 77 | 1019.8 |
| 20260508210018 | 10 | 314 | 4.8 | 9.7 | 0.00 | 0.00 | 0.00 | 77 | 1019.7 |
| 20260508205517 | 10 | 310 | 4.8 | 9.7 | 0.00 | 0.00 | 0.00 | 76 | 1019.8 |
| 20260508205035 | 10 | 311 | 4.8 | 11.3 | 0.00 | 0.00 | 0.00 | 76 | 1019.8 |
| 20260508204533 | 10 | 307 | 3.2 | 9.7 | 0.00 | 0.00 | 0.00 | 76 | 1019.8 |
| 20260508204031 | 10 | 301 | 4.8 | 9.7 | 0.00 | 0.00 | 0.00 | 77 | 1019.7 |
| 20260508203530 | 10 | 317 | 3.2 | 11.3 | 0.00 | 0.00 | 0.00 | 77 | 1019.7 |
| 20260508203027 | 11 | 326 | 4.8 | 11.3 | 0.00 | 0.00 | 0.00 | 77 | 1019.7 |
| 20260508202525 | 11 | 285 | 3.2 | 6.4 | 0.00 | 0.00 | 0.00 | 77 | 1019.7 |
| 20260508202023 | 11 | 310 | 3.2 | 6.4 | 0.00 | 0.00 | 0.00 | 77 | 1019.7 |
| 20260508201522 | 11 | 314 | 3.2 | 6.4 | 0.00 | 0.00 | 0.00 | 77 | 1019.7 |
| 20260508201020 | 11 | 299 | 4.8 | 11.3 | 0.00 | 0.00 | 0.00 | 78 | 1019.6 |
| 20260508200518 | 11 | 310 | 3.2 | 9.7 | 0.00 | 0.00 | 0.00 | 77 | 1019.6 |
| 20260508200049 | 11 | 331 | 1.6 | 6.4 | 0.00 | 0.00 | 0.00 | 78 | 1019.7 |
| 20260508200016 | 11 | 331 | 1.6 | 6.4 | 0.00 | 0.00 | 0.00 | 78 | 1019.7 |
| 20260508195534 | 11 | 326 | 3.2 | 9.7 | 0.00 | 0.00 | 0.00 | 77 | 1019.7 |
| 20260508195033 | 11 | 314 | 3.2 | 12.9 | 0.00 | 0.00 | 0.00 | 76 | 1019.6 |
| 20260508194531 | 11 | 315 | 4.8 | 11.3 | 0.00 | 0.00 | 0.00 | 76 | 1019.5 |
| 20260508194049 | 11 | 333 | 4.8 | 11.3 | 0.00 | 0.00 | 0.00 | 75 | 1019.6 |
| 20260508194029 | 11 | 333 | 4.8 | 11.3 | 0.00 | 0.00 | 0.00 | 75 | 1019.6 |
| 20260508193528 | 11 | 310 | 4.8 | 12.9 | 0.00 | 0.00 | 0.00 | 75 | 1019.5 |
| 20260508193025 | 11 | 318 | 4.8 | 11.3 | 0.00 | 0.00 | 0.00 | 75 | 1019.6 |
| 20260508192523 | 11 | 300 | 3.2 | 11.3 | 0.00 | 0.00 | 0.00 | 75 | 1019.5 |
| 20260508192021 | 11 | 304 | 3.2 | 9.7 | 0.00 | 0.00 | 0.00 | 75 | 1019.6 |
| 20260508191520 | 11 | 296 | 3.2 | 11.3 | 0.00 | 0.00 | 0.00 | 74 | 1019.5 |
| 20260508191018 | 11 | 318 | 3.2 | 9.7 | 0.00 | 0.00 | 0.00 | 74 | 1019.5 |
| 20260508190535 | 11 | 321 | 4.8 | 11.3 | 0.00 | 0.00 | 0.00 | 74 | 1019.5 |
| 20260508190034 | 11 | 298 | 3.2 | 9.7 | 0.00 | 0.00 | 0.00 | 74 | 1019.5 |
| 20260508185532 | 11 | 300 | 1.6 | 4.8 | 0.00 | 0.00 | 0.00 | 74 | 1019.4 |